Location: Unspecified
(0.0000°N, 0.0000°E)
Time: 22:35:59
(UTC+00:00)

Courier 1B - Visible Passes

Search period start: 28 May 2022 00:00
Search period end: 07 June 2022 00:00
Orbit: 962 x 1209 km, 28.3° (Epoch: 27 May)

Date Brightness Start Highest point End Pass type
(mag) Time Alt. Az. Time Alt. Az. Time Alt. Az.
28 May 9.5 03:42:39 14° SSE 03:42:39 14° SSE 03:43:46 10° SSE visible
29 May 9.4 04:39:40 11° SSW 04:39:40 11° SSW 04:41:05 10° S visible
01 Jun 10.0 21:10:20 10° NNW 21:12:08 14° N 21:12:08 14° N visible
02 Jun 9.8 20:17:24 10° N 20:20:25 13° NNE 20:21:33 12° NNE visible
03 Jun 9.7 21:15:21 10° NNW 21:17:52 19° NNW 21:17:52 19° NNW visible
04 Jun 9.3 20:21:54 10° NNW 20:27:20 22° NNE 20:27:20 22° NNE visible
05 Jun 9.6 19:28:36 10° NNW 19:33:13 17° NNE 19:36:49 12° NE visible
05 Jun 9.6 21:20:58 10° NW 21:23:42 23° NW 21:23:42 23° NW visible
06 Jun 9.9 18:35:36 10° N 18:38:55 13° NNE 18:42:11 10° NE visible
06 Jun 8.7 20:27:15 10° NW 20:33:13 37° NNE 20:33:13 37° NNE visible
